Regional Weather Roundup
Issued by NWS

Home | Current Version | Previous Version | Text Only | Print | Product List | Glossary On
Versions: 1 2 3 4 5 6 7 8 9 10 11 12 13 14 15 16 17 18 19 20 21 22 23 24 25 26 27 28 29 30 31 32 33 34 35 36 37 38 39 40 41 42 43 44 45 46 47 48 49 50
000
ASUS43 KOAX 291310
RWRNE

WEATHER ROUNDUP FOR NEBRASKA
NATIONAL WEATHER SERVICE OMAHA NE
700 AM CST THU JAN 29 2015

NOTES: SATELLITE DATA IS BEING USED TO AUGMENT CLOUD COVER ABOVE
       12000 FEET.
       "FAIR" INDICATES FEW OR NO CLOUDS BELOW 12,000 FEET WITH NO
       SIGNIFICANT WEATHER AND/OR OBSTRUCTIONS TO VISIBILITY.

  * THESE STATIONS DO NOT REPORT WEATHER SUCH AS RAIN...SNOW OR FOG.

NEZ001>004-019>022-054>056-291400-
NEBRASKA PANHANDLE

CITY           SKY/WX    TMP DP  RH WIND       PRES   REMARKS
SCOTTSBLUFF    CLEAR     30  24  78 NW7       30.44R WCI  23
ALLIANCE       CLEAR     25  23  92 NW7       30.41R WCI  17
CHADRON        PTCLDY    22  19  89 VRB3      30.45R
KIMBALL        MOCLDY    31  24  75 NW9       30.40S WCI  23
SIDNEY         CLEAR     25  19  78 W6        30.42R WCI  18
$$

NEZ057>060-069>072-079>082-291400-
SOUTHWEST NEBRASKA

CITY           SKY/WX    TMP DP  RH WIND       PRES   REMARKS
NORTH PLATTE   PTCLDY    25  21  85 W9        30.40R WCI  15
IMPERIAL       PTCLDY    27  23  85 NW10      30.43R WCI  17
LEXINGTON      CLOUDY    37  26  62 N24G36    30.37R WCI  26
MCCOOK         CLEAR     29  24  82 W9        30.41R WCI  20
OGALLALA       CLEAR     28  25  88 NW9       30.42R WCI  20
$$

NEZ005>010-023>029-035>040-094-291400-
NORTH CENTRAL NEBRASKA

CITY           SKY/WX    TMP DP  RH WIND       PRES   REMARKS
VALENTINE      CLOUDY    35  23  61 NW16G23   30.38R WCI  25
AINSWORTH      CLOUDY    33  24  69 N29       30.37R WCI  20
BROKEN BOW     CLOUDY    35  25  66 N30G40    30.35R WCI  22
O`NEILL        CLOUDY    35  28  76 NW23G31   30.33R WCI  23
ORD            CLOUDY    35  24  64 NW23G31   30.32R WCI  23
THEDFORD       CLOUDY    35  24  66 NW21G31   30.38R WCI  23
$$

NEZ041-046>049-061>064-073>077-083>087-291400-
SOUTH CENTRAL NEBRASKA

CITY           SKY/WX    TMP DP  RH WIND       PRES   REMARKS
GRAND ISLAND   MOCLDY    35  26  69 N23G31    30.33R WCI  23
AURORA         CLOUDY    37  28  70 NW18G26   30.30R WCI  27
HASTINGS       PTCLDY    35  24  64 N16G28    30.32R WCI  25
HEBRON         CLOUDY    39  28  64 NW15      30.30R WCI  31
HOLDREGE       CLOUDY    37  25  62 N26G33    30.35R WCI  25
KEARNEY *      CLOUDY    37  23  56 N21G30    30.34R WCI  27
YORK           CLOUDY    37  28  70 N20G32    30.29R WCI  27
$$

NEZ011>018-030>034-042>045-291400-
NORTHEAST NEBRASKA

CITY           SKY/WX    TMP DP  RH WIND       PRES   REMARKS
NORFOLK        CLOUDY    36  29  75 N28G38    30.27R WCI  23
ALBION         CLOUDY    36  26  67 N21G29    30.29R WCI  25
BLAIR          CLOUDY    36  28  73 NW21G26   30.22R WCI  25
COLUMBUS *     CLOUDY    37  27  65 N22G35    30.29R WCI  27
FREMONT        CLOUDY    37  29  74 NW20G33   30.26R WCI  26
TEKAMAH        CLOUDY    36  28  73 NW21G31   30.24R WCI  25
WAYNE          CLOUDY    35  29  80 NW21G31   30.26R WCI  24
$$

NEZ050>053-065>068-078-088>093-291400-
SOUTHEAST NEBRASKA

CITY           SKY/WX    TMP DP  RH WIND       PRES   REMARKS
LINCOLN        CLOUDY    38  28  67 N26G32    30.28R WCI  26
OMAHA EPPLEY   CLOUDY    36  28  73 NW18G29   30.22R WCI  26
BEATRICE       CLOUDY    38  29  71 N26G36    30.27R WCI  26
FALLS CITY     CLOUDY    37  28  70 NW16G26   30.22R WCI  28
NEBRASKA CITY  CLOUDY    37  24  59 N22G33    30.23R WCI  26
PLATTSMOUTH    CLOUDY    36  26  65 NW23G31   30.21R WCI  25
$$

NEZ044-045-051>053-067-291400-
OMAHA AREA

CITY           SKY/WX    TMP DP  RH WIND       PRES   REMARKS
OMAHA EPPLEY   CLOUDY    36  28  73 NW18G29   30.22R WCI  26
BLAIR          CLOUDY    36  28  73 NW21G26   30.22R WCI  25
FREMONT        CLOUDY    37  29  74 NW20G33   30.26R WCI  26
MILLARD        CLOUDY    37  28  70 NW17G29   30.24R WCI  28
OFFUTT AFB     CLOUDY    37  27  66 NW18G29   30.22R WCI  27
PLATTSMOUTH    CLOUDY    36  26  65 NW23G31   30.21R WCI  25
WAHOO          CLOUDY    37  27  69 N25G36    30.26R WCI  25
$$


USA.gov is the U.S. government's official web portal to all federal, state and local government web resources and services.